Location: *
(46.3500°N, 10.9000°E)
Time: 21:57:17
(UTC+00:00)

A-11 Canister half - Pass Details

Date: 21 April 2021
Orbit: 1526 x 1682 km, 47.3° (Epoch: 13 May)

Event Time Altitude Azimuth Distance (km) Brightness Sun altitude
Rises 19:09:01 0° 288° (WNW) 4,932 13.6 -9.8°
Reaches altitude 10° 19:12:11 10° 287° (WNW) 3,947 12.6 -10.3°
Maximum altitude 19:22:17 72° 206° (SSW) 1,747 9.3 -11.7°
Enters shadow 19:30:47 16° 125° (SE) 3,448 10.2 -13.0°
Drops below altitude 10° 19:32:16 10° 124° (SE) 3,897 - -13.2°
Sets 19:35:22 0° 122° (ESE) 4,866 - -13.6°
